sat.trackr.live / text

‹ back to catalog

STARLINK-33894

NORAD 63697 · 2025-087A

PAYLOAD ACTIVE UNKNOWN

§ Identity

Operator
Country
US
Launch date
2025-04-28
Launch site
AFWTR
Launch vehicle
Mass (kg)
RCS (m²)

Purposes: comms

External: N2YO · Heavens-Above · Gunter

§ Orbital elements

Epoch: 2026-09-20T20:12:35.095104Z

Period
93.85 min
Inclination
53.1594°
Eccentricity
0.0000882
Mean motion
15.34392869 rev/d
Perigee alt
462.1 km
Apogee alt
463.3 km
Semi-major
6,840.9 km
B*
3.0822e-4
RAAN
28.4631°
Arg perigee
111.1738°
Mean anomaly
248.9359°
Rev number
7,914

§ Raw data

STARLINK-338941 63697U 25087A   26263.84207286  .00010049  00000+0  30822-3 0  99902 63697  53.1594  28.4631 0000882 111.1738 248.9359 15.34392869 79145

JSON: /api/v1/satellites/63697 · /tle

For live sub-satellite position, see the globe view (requires WebGL).

§ Visibility from observer

Set your observer location to see the next 7 days of passes ≥ 10°. The values pass through the URL so the page stays shareable.

No JS? Fill the form by hand. The geolocation button needs JavaScript.